User: anonymous   Login
Location: Lone Wolf Observatory
(41.0360°N, 89.2260°W)
Time: 13:37:44
(UTC-05:00)
Language:

Cosmos 1378 Rocket - Orbit

View from above orbital plane
View from above orbital plane
View from above satellite
View from above satellite

Ground track
Ground track

The orbit data is extracted from the following two-line orbital elements,

1 13272U 82059B   18140.90723317 +.00000061 +00000-0 +42796-5 0  9995
2 13272 082.5106 181.8386 0020178 083.2352 277.1159 14.84641363920918
Epoch (UTC): 20 May 2018 21:46:24
Eccentricity: 0.0020178
inclination: 82.5106°
perigee height: 600 km
apogee height: 629 km
right ascension of ascending node: 181.8386°
argument of perigee: 83.2352°
revolutions per day: 14.84641363
mean anomaly at epoch: 277.1159°
orbit number at epoch: 92091

The dashed part of the orbit path shows where the satellite is in the earth's shadow,  

DLR